Location: Bush Observatory
(40.2653°N, 94.3194°W)
Time: 03:52:58
(UTC-06:00)

Daily predictions for brighter satellites

Satellite Brightness Start Highest point End
(mag) Time Altitude Azimuth Time Altitude Azimuth Time Altitude Azimuth
Cosmos 2369 Rocket 4.5 04:14:29 15° NNE 04:16:31 18° NE 04:20:23 10° E
Meteor 1-18 Rocket 4.5 04:43:32 66° SSE 04:43:32 66° SSE 04:48:35 10° S
Feng Yun 1-1 Rocket 4.4 04:40:55 10° NNE 04:46:30 69° ESE 04:51:54 10° S
CZ-3 R/B 3.9 04:46:55 10° SW 05:00:05 25° S 05:05:15 10° SE
Cosmos 2056 Rocket 3.7 04:59:36 55° NNE 05:00:29 65° ENE 05:05:32 10° SSE
Okean 1 Rocket 4.3 04:57:17 10° SSE 05:01:24 40° E 05:05:30 10° NNE
Cosmos 1238 Rocket 3.9 05:04:08 55° SSW 05:04:08 55° SSW 05:09:01 10° S
SL-16 R/B 4.1 05:09:01 16° N 05:09:01 16° N 05:10:22 10° N
COSMO-SKYMED 1 3.6 05:04:57 10° SE 05:09:03 44° ENE 05:11:25 23° NNE
Ariane Rocket 4.5 05:08:58 10° NNE 05:13:38 37° E 05:18:17 10° SSE
Cosmos 1624 Rocket 3.9 05:12:49 59° NNW 05:13:52 87° WSW 05:19:11 10° SSE
USA 215 3.4 05:07:55 10° NE 05:14:26 72° SE 05:20:10 14° SW
Cosmos 44 Rocket 3.3 05:13:50 45° SSW 05:15:27 87° ESE 05:20:36 10° NNE
Cosmos 1602 4.1 05:14:17 10° S 05:18:11 65° E 05:22:07 10° NNE
Cosmos 1371 Rocket 3.9 05:19:01 63° W 05:19:11 63° WSW 05:24:21 10° S
USA 32 4.1 05:24:26 53° WSW 05:24:26 53° WSW 05:29:12 10° SSW
Okean 1-7 Rocket 4.1 05:21:27 16° N 05:24:52 56° E 05:29:10 10° SSE
Lacrosse 5 1.7 05:24:03 59° WSW 05:24:54 72° NW 05:30:01 10° NE
Cosmos 1300 Rocket 3.4 05:21:08 10° S 05:25:33 83° W 05:29:58 10° N
Cosmos 192 4.1 05:21:18 10° SSW 05:26:12 79° WNW 05:31:08 10° NNE
CENTAUR R/B 3.9 05:28:31 22° NNW 05:28:31 22° NNW 05:33:20 10° NNE
SL-08 ROCKET BODY 4.5 05:22:46 10° SSW 05:28:30 48° WNW 05:34:11 10° N
Meteor 1-11 Rocket 3.8 05:28:22 10° S 05:34:13 84° E 05:39:58 10° N
Nadezhda 3 Rocket 4.0 05:31:13 10° N 05:37:37 88° E 05:43:59 10° S
SKYMED 3 4.4 05:34:42 10° SSE 05:39:03 84° W 05:41:49 22° NNW
Cosmos 1346 Rocket 4.3 05:41:28 23° SW 05:41:28 23° SW 05:43:14 10° SSW
CSL-04 Rocket 4.3 05:38:47 10° NNE 05:44:16 59° E 05:49:40 10° S
Meteor 1-13 Rocket 4.3 05:39:24 10° NNW 05:45:20 68° W 05:51:12 10° S
Tiangong 2 1.1 05:45:33 62° N 05:45:37 62° N 05:48:44 10° E
Radarsat Rocket 4.5 05:39:55 10° NNE 05:47:06 79° WNW 05:55:11 10° SSW
Cosmos 1452 Rocket 3.6 05:44:46 12° NNW 05:49:42 76° ENE 05:54:58 10° SSE
Cosmos 962 Rocket 4.4 05:45:57 10° S 05:52:09 88° W 05:58:26 10° N
Meteor 2-13 Rocket 4.4 05:47:47 10° SSW 05:53:54 68° W 06:00:04 10° N
SKYMED 2 3.7 05:52:52 10° S 05:57:05 52° W 06:00:02 19° NNW
Meteor 2-4 Rocket 3.7 05:52:51 10° N 05:58:25 89° W 06:04:06 10° S
Cosmos 2369 Rocket 2.1 05:56:19 15° NNW 06:01:11 73° WSW 06:06:50 10° SSE
Cosmos 1603 4.4 06:01:03 22° W 06:03:22 30° WNW 06:08:17 10° N
Cosmos 2341 Rocket 3.9 05:57:15 10° SSW 06:03:31 72° W 06:09:47 10° N
Okean 2 3.9 06:01:08 10° N 06:05:17 61° E 06:09:23 10° SSE
Meteor 1-5 Rocket 4.3 06:01:55 10° S 06:07:16 76° E 06:12:34 10° NNE
USA 129 2.5 06:05:53 10° SSE 06:07:55 50° ENE 06:09:11 20° N
Cosmos 44 3.5 06:04:39 10° SW 06:09:55 56° NW 06:15:02 10° NNE
Cosmos 1536 3.2 06:12:44 10° SSW 06:16:30 39° WNW 06:20:18 10° N
CZ-4 R/B 1.9 06:15:41 10° NNE 06:19:35 62° E 06:23:26 10° S
Cosmos 1025 Rocket 3.2 06:16:07 10° NNW 06:20:23 52° W 06:24:36 10° S
PAYLOAD A 4.3 06:17:53 10° NNE 06:23:18 83° ESE 06:28:44 10° SSW
Cosmos 1633 3.9 06:22:25 10° WSW 06:25:03 19° WNW 06:27:41 10° NNW
Cosmos 1943 3.6 06:20:53 10° SW 06:26:10 41° WNW 06:31:30 10° N
YAOGAN 1 3.6 06:22:55 10° NNE 06:27:10 51° E 06:31:22 10° S
Cosmos 1269 Rocket 4.0 06:23:38 10° SSW 06:28:54 85° WNW 06:34:15 10° NNE
USA 229 DEB 3.7 06:23:03 10° SW 06:29:54 71° NW 06:36:53 10° NNE
USA 229 3.7 06:23:09 10° SW 06:30:00 72° NW 06:36:59 10° NNE
Abrixas rocket 3.4 06:28:42 17° WNW 06:30:33 28° NNW 06:33:31 10° NE
SJ-12 4.0 06:30:32 10° NNE 06:34:43 84° ESE 06:38:52 10° S
Meteor 2-19 Rocket 4.4 06:30:11 10° SSW 06:36:18 76° W 06:42:26 10° N
IRS-1A Rocket 4.3 06:32:42 10° N 06:38:24 70° WNW 06:44:11 10° SSW
Cosmos 1943 Rocket 2.1 06:33:45 10° NNW 06:39:15 76° WSW 06:44:45 10° SSE
Cosmos 1544 Rocket 3.6 06:37:10 10° SSW 06:41:26 59° W 06:45:47 10° N
Lacrosse 5 rocket 3.9 06:41:15 10° N 06:41:45 10° NNE 06:42:14 10° NNE
Cosmos 1420 Rocket 4.1 06:37:41 10° NNW 06:42:52 61° WSW 06:47:58 10° S
SL-23 DEB 3.6 06:40:47 11° NW 06:43:45 73° NE 06:47:46 10° ESE
Lacrosse 4 Rocket 1.6 06:40:21 10° NNW 06:44:30 72° ENE 06:48:32 10° SSE
COSMO-SKYMED 1 4.2 06:42:49 10° SW 06:45:25 16° W 06:48:02 10° NW
Ariane Rocket 3.9 06:48:17 10° N 06:52:24 26° WNW 06:56:32 10° WSW
CZ-2C R/B 2.5 06:49:46 10° N 06:54:55 73° WNW 06:59:56 10° SSW
SPOT 3 Rocket 3.5 06:51:08 10° NNE 06:56:17 81° WNW 07:01:26 10° SSW
Cosmos 1048 Rocket 4.1 06:51:28 10° SW 06:56:28 52° WNW 07:01:33 10° N
USA 215 3.8 06:51:13 10° NE 06:57:08 39° NNW 07:03:04 10° W
Meteor 1-29 2.9 06:54:24 10° S 06:57:46 83° WSW 07:01:09 10° NNW
SL-8 Rocket 4.3 06:52:37 10° SSW 06:58:33 44° WNW 07:04:28 10° N
Cosmos 1500 3.2 06:55:58 10° S 06:59:43 90° W 07:03:30 10° N
AQUARIUS 4.2 06:57:11 10° N 07:01:37 59° WNW 07:06:02 10° SSW
Cosmos 1656 Rocket 4.0 06:56:06 10° NNW 07:01:47 76° ENE 07:07:28 10° SSE
